Location: Narrabri
(30.3170°S, 149.7830°E)
Time: 13:51:28
(UTC+11:00)

OTV 5 (USA 277) - Pass Details

Date: 14 October 2017
Orbit: 404 x 417 km, 43.0° (Epoch: 07 September)

Event Time Altitude Azimuth Distance (km) Brightness Sun altitude
Exits shadow 05:53:11 10° 285° (WNW) 1,495 ? -7.4°
Reaches altitude 10° 05:53:16 10° 284° (WNW) 1,466 ? -7.3°
Maximum altitude 05:56:27 45° 210° (SSW) 570 ? -6.7°
Drops below altitude 10° 05:59:41 10° 135° (SE) 1,476 ? -6.0°
Sets 06:01:51 0° 128° (SE) 2,342 ? -5.5°
